Time,TemperatureF,DewpointF,PressureIn,WindDirection,WindDirectionDegrees,WindSpeedMPH,WindSpeedGustMPH,Humidity,HourlyPrecipIn,Conditions,Clouds,dailyrainin,SoftwareType,DateUTC
2013-10-25 00:01:00,30.0,25.0,30.34,NW,308,2.0,4.0,80,0.00,,,0.00,,2013-10-25 04:01:00,
2013-10-25 00:14:00,31.0,25.0,30.34,WNW,296,2.0,4.0,78,0.00,,,0.00,,2013-10-25 04:14:00,
2013-10-25 00:24:00,30.0,25.0,30.34,NW,308,2.0,4.0,80,0.00,,,0.00,,2013-10-25 04:24:00,
2013-10-25 00:34:00,30.0,25.0,30.34,NW,308,2.0,4.0,80,0.00,,,0.00,,2013-10-25 04:34:00,
2013-10-25 00:44:00,30.0,25.0,30.34,NW,308,2.0,4.0,80,0.00,,,0.00,,2013-10-25 04:44:00,
2013-10-25 00:54:00,30.0,25.0,30.34,NW,308,2.0,4.0,80,0.00,,,0.00,,2013-10-25 04:54:00,
2013-10-25 09:11:00,25.0,22.0,30.45,West,279,0.0,3.0,90,0.00,,,0.00,,2013-10-25 13:11:00,
2013-10-25 09:21:00,27.0,24.0,30.46,WNW,298,2.0,5.0,90,0.00,,,0.00,,2013-10-25 13:21:00,
2013-10-25 09:41:00,28.0,25.0,30.46,WNW,293,3.0,6.0,89,0.00,,,0.00,,2013-10-25 13:41:00,
2013-10-25 09:52:00,29.0,26.0,30.47,West,275,4.0,7.0,88,0.00,,,0.00,,2013-10-25 13:52:00,
2013-10-25 10:11:00,30.0,26.0,30.47,WNW,299,5.0,8.0,86,0.00,,,0.00,,2013-10-25 14:11:00,
2013-10-25 10:22:00,32.0,28.0,30.47,West,277,4.0,7.0,86,0.00,,,0.00,,2013-10-25 14:22:00,
2013-10-25 10:42:00,33.0,29.0,30.48,West,273,4.0,8.0,85,0.00,,,0.00,,2013-10-25 14:42:00,
2013-10-25 10:52:00,35.0,30.0,30.47,West,265,3.0,7.0,82,0.00,,,0.00,,2013-10-25 14:52:00,
2013-10-25 11:11:00,37.0,31.0,30.48,WNW,286,4.0,10.0,78,0.00,,,0.00,,2013-10-25 15:11:00,
2013-10-25 11:21:00,38.0,30.0,30.48,West,279,7.0,11.0,74,0.00,,,0.00,,2013-10-25 15:21:00,
2013-10-25 11:43:00,40.0,32.0,30.48,West,278,5.0,11.0,72,0.00,,,0.00,,2013-10-25 15:43:00,
2013-10-25 11:53:00,41.0,31.0,30.48,NW,312,5.0,10.0,67,0.00,,,0.00,,2013-10-25 15:53:00,
2013-10-25 12:13:00,43.0,32.0,30.47,WNW,289,7.0,11.0,64,0.00,,,0.00,,2013-10-25 16:13:00,
2013-10-25 12:23:00,44.0,32.0,30.47,NW,307,6.0,14.0,63,0.00,,,0.00,,2013-10-25 16:23:00,
2013-10-25 12:43:00,44.0,31.0,30.47,West,265,5.0,13.0,59,0.00,,,0.00,,2013-10-25 16:43:00,
2013-10-25 12:53:00,45.0,31.0,30.47,West,281,6.0,14.0,58,0.00,,,0.00,,2013-10-25 16:53:00,
2013-10-25 13:13:00,46.0,30.0,30.46,WSW,254,6.0,14.0,53,0.00,,,0.00,,2013-10-25 17:13:00,
2013-10-25 13:22:00,46.0,31.0,30.45,WNW,284,6.0,11.0,55,0.00,,,0.00,,2013-10-25 17:22:00,
2013-10-25 13:43:00,47.0,30.0,30.45,West,274,7.0,14.0,51,0.00,,,0.00,,2013-10-25 17:43:00,
2013-10-25 13:52:00,47.0,29.0,30.44,West,279,8.0,15.0,49,0.00,,,0.00,,2013-10-25 17:52:00,
2013-10-25 14:12:00,47.0,28.0,30.43,WNW,292,7.0,16.0,48,0.00,,,0.00,,2013-10-25 18:12:00,
2013-10-25 14:21:00,47.0,29.0,30.42,West,278,6.0,11.0,49,0.00,,,0.00,,2013-10-25 18:21:00,
2013-10-25 14:42:00,48.0,29.0,30.42,NNW,329,6.0,13.0,47,0.00,,,0.00,,2013-10-25 18:42:00,
2013-10-25 14:52:00,48.0,29.0,30.41,WNW,288,8.0,13.0,47,0.00,,,0.00,,2013-10-25 18:52:00,
2013-10-25 15:11:00,48.0,29.0,30.40,WNW,298,5.0,12.0,48,0.00,,,0.00,,2013-10-25 19:11:00,
2013-10-25 15:22:00,47.0,28.0,30.39,WSW,258,5.0,14.0,48,0.00,,,0.00,,2013-10-25 19:22:00,
2013-10-25 15:42:00,49.0,30.0,30.38,WSW,243,7.0,12.0,48,0.00,,,0.00,,2013-10-25 19:42:00,
2013-10-25 15:52:00,50.0,30.0,30.37,WSW,242,7.0,16.0,46,0.00,,,0.00,,2013-10-25 19:52:00,
2013-10-25 16:12:00,48.0,29.0,30.36,WNW,294,8.0,14.0,47,0.00,,,0.00,,2013-10-25 20:12:00,
2013-10-25 16:22:00,48.0,29.0,30.36,SW,225,5.0,13.0,47,0.00,,,0.00,,2013-10-25 20:22:00,
2013-10-25 16:42:00,49.0,29.0,30.35,West,269,6.0,13.0,46,0.00,,,0.00,,2013-10-25 20:42:00,
2013-10-25 16:52:00,49.0,29.0,30.35,West,265,6.0,12.0,45,0.00,,,0.00,,2013-10-25 20:52:00,
2013-10-25 17:11:00,49.0,30.0,30.35,WNW,292,8.0,14.0,47,0.00,,,0.00,,2013-10-25 21:11:00,
2013-10-25 17:22:00,49.0,28.0,30.34,WNW,286,5.0,11.0,44,0.00,,,0.00,,2013-10-25 21:22:00,
2013-10-25 17:43:00,50.0,30.0,30.33,WSW,258,4.0,13.0,46,0.00,,,0.00,,2013-10-25 21:43:00,
2013-10-25 17:54:00,49.0,29.0,30.33,WSW,252,3.0,11.0,46,0.00,,,0.00,,2013-10-25 21:54:00,
2013-10-25 18:13:00,49.0,28.0,30.32,West,265,5.0,10.0,44,0.00,,,0.00,,2013-10-25 22:13:00,
2013-10-25 18:23:00,49.0,29.0,30.31,SW,223,2.0,9.0,46,0.00,,,0.00,,2013-10-25 22:23:00,
2013-10-25 18:42:00,48.0,29.0,30.31,West,271,2.0,9.0,47,0.00,,,0.00,,2013-10-25 22:42:00,
2013-10-25 18:53:00,47.0,29.0,30.31,WSW,244,1.0,6.0,49,0.00,,,0.00,,2013-10-25 22:53:00,
2013-10-25 19:12:00,45.0,28.0,30.30,SSW,211,1.0,5.0,52,0.00,,,0.00,,2013-10-25 23:12:00,
2013-10-25 19:22:00,44.0,29.0,30.30,South,190,1.0,4.0,55,0.00,,,0.00,,2013-10-25 23:22:00,
2013-10-25 19:42:00,43.0,29.0,30.29,SSW,205,1.0,4.0,57,0.00,,,0.00,,2013-10-25 23:42:00,
2013-10-25 19:52:00,43.0,29.0,30.29,South,178,1.0,5.0,57,0.00,,,0.00,,2013-10-25 23:52:00,
2013-10-25 20:11:00,42.0,28.0,30.29,SSW,196,1.0,4.0,58,0.00,,,0.00,,2013-10-26 00:11:00,
2013-10-25 20:22:00,42.0,29.0,30.29,SW,219,2.0,4.0,59,0.00,,,0.00,,2013-10-26 00:22:00,
2013-10-25 20:42:00,41.0,28.0,30.28,SSW,213,1.0,3.0,60,0.00,,,0.00,,2013-10-26 00:42:00,
2013-10-25 20:52:00,41.0,29.0,30.28,WSW,238,2.0,6.0,61,0.00,,,0.00,,2013-10-26 00:52:00,
2013-10-25 21:12:00,40.0,28.0,30.27,SW,217,2.0,6.0,62,0.00,,,0.00,,2013-10-26 01:12:00,
2013-10-25 21:22:00,40.0,28.0,30.27,SSW,198,1.0,5.0,63,0.00,,,0.00,,2013-10-26 01:22:00,
2013-10-25 21:42:00,40.0,28.0,30.26,SSW,204,2.0,6.0,63,0.00,,,0.00,,2013-10-26 01:42:00,
2013-10-25 21:52:00,40.0,28.0,30.25,SSW,209,2.0,10.0,63,0.00,,,0.00,,2013-10-26 01:52:00,
2013-10-25 22:12:00,40.0,29.0,30.25,SSW,209,3.0,7.0,64,0.00,,,0.00,,2013-10-26 02:12:00,
2013-10-25 22:22:00,40.0,29.0,30.24,SSW,196,3.0,8.0,64,0.00,,,0.00,,2013-10-26 02:22:00,
2013-10-25 22:43:00,40.0,28.0,30.24,SW,225,3.0,8.0,63,0.00,,,0.00,,2013-10-26 02:43:00,
2013-10-25 22:52:00,39.0,28.0,30.24,SSW,203,3.0,7.0,64,0.00,,,0.00,,2013-10-26 02:52:00,
2013-10-25 23:12:00,39.0,28.0,30.24,SSW,209,3.0,8.0,65,0.00,,,0.00,,2013-10-26 03:12:00,
2013-10-25 23:22:00,38.0,28.0,30.24,SSW,198,4.0,8.0,66,0.00,,,0.00,,2013-10-26 03:22:00,
2013-10-25 23:44:00,39.0,29.0,30.23,SW,230,4.0,8.0,66,0.00,,,0.00,,2013-10-26 03:44:00,
2013-10-25 23:54:00,38.0,28.0,30.23,SW,219,4.0,9.0,67,0.00,,,0.00,,2013-10-26 03:54:00,